DateTimeUTC,F1_A11,F1_S11,BsB_S11,BsG_S11,BsR_S11,BbsB_S11,BbsG_S11,BbsR_S11,BaB_A11,BaG_A11,BaR_A11,Tu_S11,T_S11,Uu_S11,U_S11,P_S11,T1_A11
2021-07-28T08:00:00Z,00000200,20000000,,,,,,,0000.08,-000.11,-000.33,18.9,25.4,15.9,10.7,0687.0,31.1
2021-07-28T08:01:00Z,00000200,20000000,,,,,,,-000.29,-000.15,-000.02,18.9,25.4,15.9,10.7,0687.0,31.1
2021-07-28T08:02:00Z,00000200,20000000,,,,,,,-000.11,-000.15,0000.11,18.9,25.4,15.9,10.7,0687.0,31.1
2021-07-28T08:03:00Z,00000200,60000000,,,,,,,0000.02,0000.85,-000.26,18.9,25.4,15.9,10.7,0687.0,31.1
2021-07-28T08:04:00Z,00000200,40000000,0002.87,0001.29,0000.90,0000.00,0000.33,0000.52,0000.45,-000.34,0000.16,19.0,25.2,15.7,10.7,0687.9,31.1
2021-07-28T08:05:00Z,00000200,00000000,0002.13,0001.24,0000.86,-000.39,0000.37,-000.12,0000.29,0000.05,0000.53,19.0,25.2,15.7,10.8,0688.0,31.1
2021-07-28T08:06:00Z,00000200,00000000,0002.09,0001.47,0000.48,0000.83,0000.02,0000.06,0000.28,0000.64,0000.13,19.0,25.2,15.6,10.8,0688.0,31.1
2021-07-28T08:07:00Z,00000200,00000000,0002.02,0001.49,0000.71,0000.32,0000.12,0000.23,-000.01,-000.10,0000.03,19.0,25.2,15.7,10.8,0688.0,31.1
2021-07-28T08:08:00Z,00000200,00000000,0002.19,0001.47,0000.95,0000.62,0000.32,0000.09,0000.68,0000.40,0000.30,19.0,25.2,15.7,10.8,0688.0,31.1
2021-07-28T08:09:00Z,00000200,00000000,0002.04,0001.24,0000.70,0000.34,0000.14,0000.14,0000.06,0000.05,0000.10,19.0,25.2,15.7,10.8,0688.0,31.1
2021-07-28T08:10:00Z,00000200,00000000,0002.67,0001.02,0000.70,0000.10,0000.21,0000.06,0000.04,0000.17,0000.41,19.0,25.2,15.7,10.8,0688.0,31.1
2021-07-28T08:11:00Z,00000200,00000000,0002.16,0001.17,0000.84,0000.27,0000.26,0000.25,0000.14,0000.28,-000.02,19.0,25.2,15.8,10.9,0688.0,31.1
2021-07-28T08:12:00Z,00000200,00000000,0002.29,0001.24,0001.11,-000.20,0000.33,-000.13,0000.31,0000.05,0000.11,19.0,25.1,15.8,10.9,0687.9,31.1
2021-07-28T08:13:00Z,00000200,00000000,0002.41,0001.61,0001.11,0000.89,0000.11,0000.44,0000.38,0000.15,-000.02,19.0,25.2,15.8,10.9,0687.9,31.1
2021-07-28T08:14:00Z,00000200,00000000,0003.06,0001.44,0000.52,-000.05,-000.06,0000.17,0000.56,0000.45,0000.33,19.0,25.2,15.8,10.9,0687.9,31.1
2021-07-28T08:15:00Z,00000200,00000000,0002.70,0001.77,0001.03,0000.28,0000.50,0000.31,0000.27,0000.50,0000.36,19.0,25.1,15.9,10.9,0687.9,31.1
2021-07-28T08:16:00Z,00000200,00000000,0002.15,0001.70,0000.58,0000.65,-000.06,-000.02,-000.11,-000.02,0000.25,19.1,25.1,15.9,11.0,0688.0,31.1
2021-07-28T08:17:00Z,00000200,00000000,0002.08,0001.11,0000.81,0000.37,0000.13,0000.22,0000.38,0000.36,0000.35,19.1,25.2,15.9,10.9,0687.9,31.1
2021-07-28T08:18:00Z,00000200,00000000,0002.61,0001.49,0000.82,0000.64,0000.15,0000.10,0000.16,0000.36,0000.02,19.1,25.2,15.8,10.9,0688.0,31.1
2021-07-28T08:19:00Z,00000200,00000000,0002.58,0001.43,0000.96,-000.02,0000.07,0000.32,-000.17,0000.00,0000.05,19.1,25.1,16.0,11.0,0688.0,31.1
2021-07-28T08:20:00Z,00000200,00000000,0002.62,0001.52,0001.46,0000.21,0000.09,0000.43,0000.43,0000.25,0000.19,19.1,25.1,15.9,11.0,0688.0,31.1
2021-07-28T08:21:00Z,00000200,00000000,0002.23,0001.64,0001.02,0000.62,0000.24,-000.00,0000.26,0000.37,0000.09,19.1,25.1,15.9,11.0,0688.0,31.1
2021-07-28T08:22:00Z,00000200,00000000,0003.24,0001.46,0001.17,0000.35,0000.34,0000.26,0000.51,0000.08,0000.41,19.1,25.2,16.0,11.0,0687.9,31.1
2021-07-28T08:23:00Z,00000200,00000000,0002.87,0001.53,0001.24,0000.10,0000.39,0000.36,0000.17,0000.52,0000.06,19.1,25.2,15.9,11.0,0687.9,31.1
2021-07-28T08:24:00Z,00000200,00000000,0002.05,0001.90,0001.37,0000.69,0000.30,0000.45,0000.38,0000.13,0000.12,19.1,25.1,15.9,11.0,0687.9,31.1
2021-07-28T08:25:00Z,00000200,00000000,0003.05,0001.65,0001.11,-000.19,0000.14,0000.09,0000.55,0000.34,0000.77,19.1,25.1,15.9,11.0,0687.9,31.1
2021-07-28T08:26:00Z,00000200,00000000,0003.47,0001.66,0000.72,0000.30,0000.26,0000.04,0000.21,-000.04,0000.05,19.1,25.1,16.0,11.0,0687.9,31.1
2021-07-28T08:27:00Z,00000200,00000000,0002.65,0001.75,0000.79,0000.05,0000.36,0000.12,0000.37,0000.70,-000.05,19.1,25.1,15.9,11.0,0687.9,31.1
2021-07-28T08:28:00Z,00000200,00000000,0003.07,0002.09,0001.35,0000.28,0000.20,0000.27,-000.01,0000.02,-000.01,19.1,25.2,15.9,10.9,0687.9,31.1
2021-07-28T08:29:00Z,00000200,00000000,0003.08,0001.35,0001.12,0000.08,0000.09,0000.03,0000.65,0000.19,0000.78,19.1,25.1,15.9,11.0,0687.9,31.1
2021-07-28T08:30:00Z,00000200,00000000,0003.10,0001.86,0000.78,-000.11,-000.09,0000.14,0000.15,0000.22,0000.02,19.1,25.1,15.9,11.0,0688.0,31.1
2021-07-28T08:31:00Z,00000200,00000000,0002.72,0001.85,0001.24,0000.38,0000.37,0000.45,0000.19,0000.47,0000.48,19.1,25.1,16.0,11.1,0687.9,31.1
2021-07-28T08:32:00Z,00000200,00000000,0002.82,0001.73,0001.23,0000.18,0000.24,0000.40,0000.25,0000.23,0000.12,19.1,25.1,16.0,11.0,0687.9,31.1
2021-07-28T08:33:00Z,00000200,00000000,0003.47,0001.86,0001.22,0000.29,0000.46,0000.04,0000.38,0000.48,0000.25,19.1,25.1,16.0,11.0,0687.8,31.1
2021-07-28T08:34:00Z,00000200,00000000,0003.66,0002.02,0001.22,0000.67,0000.39,0000.15,0000.65,0000.46,0000.37,19.1,25.1,15.9,11.0,0687.9,31.1
2021-07-28T08:35:00Z,00000200,00000000,0003.71,0002.57,0001.13,0000.54,0000.41,0000.32,0000.32,0000.42,0000.43,19.1,25.1,16.0,11.1,0687.9,31.1
2021-07-28T08:36:00Z,00000200,00000000,0002.98,0002.31,0001.49,0000.39,0000.01,0000.41,0000.46,0000.28,-000.01,19.1,25.1,16.0,11.1,0687.9,31.1
2021-07-28T08:37:00Z,00000200,00000000,0003.00,0002.08,0001.45,0000.09,0000.44,0000.40,0000.84,0000.23,0000.46,19.1,25.1,16.1,11.1,0687.9,31.1
2021-07-28T08:38:00Z,00000200,00000000,0004.77,0002.17,0001.56,0001.05,0000.36,0000.08,0000.05,0000.58,0000.56,19.1,25.1,16.1,11.1,0687.9,31.1
2021-07-28T08:39:00Z,00000200,00000000,0004.41,0002.92,0001.92,0000.81,0000.49,0000.57,0000.45,0000.47,0000.13,19.1,25.1,16.0,11.1,0687.9,31.1
2021-07-28T08:40:00Z,00000200,00000000,0003.86,0002.84,0001.61,0000.70,0000.53,0000.35,0000.46,0000.44,0000.47,19.1,25.1,16.0,11.1,0688.0,31.1
2021-07-28T08:41:00Z,00000200,00000000,0004.04,0002.12,0001.83,0000.60,0000.09,0000.40,0000.66,0000.40,0000.14,19.1,25.1,16.2,11.1,0687.9,31.1
2021-07-28T08:42:00Z,00000200,00000000,0003.94,0002.78,0001.72,0000.37,0000.31,0000.44,0000.71,0000.81,0000.80,19.1,25.1,16.1,11.1,0687.9,31.1
2021-07-28T08:43:00Z,00000200,00000000,0004.27,0003.06,0001.79,0000.47,0000.44,0000.04,0000.32,0000.23,0000.35,19.1,25.1,16.0,11.0,0688.0,31.1
2021-07-28T08:44:00Z,00000200,00000000,0004.08,0002.83,0001.71,0000.44,0000.19,0000.04,0000.79,0000.58,0000.41,19.1,25.1,16.1,11.1,0687.9,31.1
2021-07-28T08:45:00Z,00000200,00000000,0005.17,0003.43,0002.19,0000.12,0000.63,0000.85,0000.38,0000.74,0000.56,19.1,25.1,15.9,11.0,0687.9,31.1
2021-07-28T08:46:00Z,00000200,00000000,0005.32,0003.56,0002.11,0000.30,0000.54,0000.52,0000.90,0000.55,0000.53,19.1,25.1,16.0,11.0,0688.0,31.1
2021-07-28T08:47:00Z,00000200,00000000,0006.15,0003.78,0002.45,0000.66,0000.58,0000.37,0000.75,0000.94,0000.77,19.1,25.1,16.0,11.1,0687.9,31.1
2021-07-28T08:48:00Z,00000200,00000000,0006.54,0003.98,0002.72,0000.82,0000.40,0000.70,0000.75,0000.09,0000.46,19.1,25.1,16.0,11.1,0687.9,31.0
2021-07-28T08:49:00Z,00000200,00000000,0006.10,0004.02,0002.30,0000.82,0000.41,0000.51,0000.68,0001.26,0000.70,19.1,25.1,16.0,11.1,0687.9,31.1
2021-07-28T08:50:00Z,00000200,00000000,0006.14,0004.32,0002.67,0001.01,0000.92,0000.53,0001.02,0000.98,0000.30,19.1,25.1,16.1,11.1,0687.9,31.1
2021-07-28T08:51:00Z,00000200,00000000,0006.82,0005.13,0003.01,0000.63,0000.35,0000.95,0001.04,0001.11,0000.86,19.1,25.1,16.1,11.2,0687.9,31.0
2021-07-28T08:52:00Z,00000200,00000000,0007.01,0004.45,0002.99,0000.57,0000.52,0000.50,0000.73,0000.18,0000.48,19.1,25.1,16.1,11.2,0687.9,31.1
2021-07-28T08:53:00Z,00000200,00000000,0007.42,0004.64,0002.68,0000.72,0000.35,0000.71,0000.70,0000.93,0000.83,19.1,25.1,16.1,11.2,0687.9,31.1
2021-07-28T08:54:00Z,00000200,00000000,0006.50,0004.87,0002.67,0000.71,0000.57,0000.28,0001.21,0000.84,0000.89,19.1,25.1,16.1,11.1,0688.0,31.1
2021-07-28T08:55:00Z,00000200,00000000,0006.70,0004.22,0002.85,0000.73,0000.70,0000.62,0000.41,0000.63,0000.64,19.1,25.1,16.1,11.1,0687.9,31.1
2021-07-28T08:56:00Z,00000200,00000000,0007.48,0004.62,0002.79,0000.90,0000.64,0000.46,0000.94,0000.66,0000.31,19.1,25.1,16.1,11.1,0687.9,31.1
2021-07-28T08:57:00Z,00000200,40000000,,,,,,,0000.21,0000.24,-000.08,19.2,25.2,16.3,11.3,0687.8,31.1
2021-07-28T08:58:00Z,00000200,60000000,,,,,,,0000.05,-000.09,0000.15,19.0,25.3,16.1,10.9,0686.8,31.1
2021-07-28T08:59:00Z,00000200,20000000,,,,,,,0000.02,0000.14,-000.30,19.0,25.4,16.1,10.9,0686.8,31.1
